Wind_Speed
23 25 26 28 29 31 32 34 34 35 35 35 35 35 36 35 35 34 34 34 33 33 33 32 31 29 28 28 27 26 26 25 25 25 25 24 24 24
20 22 24 26 28 29 31 33 34 34 35 35 36 36 36 36 36 36 35 35 34 33 34 34 33 32 31 30 29 28 28 27 27 26 26 26 26 26
17 19 21 23 24 26 28 31 33 34 34 34 35 35 35 35 37 36 35 36 35 34 34 34 34 34 33 32 31 30 29 28 28 28 28 27 27 26
13 16 18 21 22 24 26 28 30 31 32 33 34 34 34 35 36 37 36 36 36 35 34 34 33 34 33 33 32 31 30 30 30 29 29 29 28 27
10 13 15 18 19 21 23 25 27 29 30 32 32 33 33 34 34 35 35 35 34 35 34 33 33 33 34 34 33 32 32 31 31 30 30 29 29 29
7 9 11 14 16 18 20 21 24 26 28 30 32 32 32 32 33 33 33 33 33 33 33 33 33 33 33 34 34 33 33 32 32 31 31 30 30 30
5 6 9 12 14 16 18 19 22 24 26 28 29 30 31 32 32 32 32 32 32 33 33 32 33 33 32 32 33 32 32 32 32 32 32 31 31 30
5 5 7 9 12 14 15 17 20 22 24 26 28 28 29 31 31 31 31 32 32 33 33 33 33 32 31 31 31 32 33 33 32 32 32 32 31 31
5 5 6 8 10 11 13 15 17 19 21 23 25 27 28 29 30 30 31 31 32 33 33 32 31 31 32 32 32 32 32 32 32 33 33 32 31 31
6 5 5 6 8 10 12 13 15 17 19 21 22 25 26 28 28 28 29 30 30 31 32 32 31 32 32 32 31 31 31 32 32 32 33 33 32 31
8 7 5 5 6 8 10 12 14 17 18 19 21 22 24 26 27 27 28 29 30 30 31 31 31 32 32 32 32 32 32 33 32 31 31 32 31 30
9 8 7 6 6 7 9 10 12 14 16 18 20 21 22 24 26 26 27 28 29 30 30 31 31 32 32 32 32 32 32 32 32 31 30 29 30 29
10 9 8 7 7 7 7 9 10 12 14 16 18 20 21 23 25 26 27 27 28 28 29 29 29 31 32 32 31 31 31 30 30 30 30 29 29 28
11 11 10 9 8 8 7 8 9 10 12 14 15 17 19 21 23 26 26 26 27 27 27 27 28 29 30 31 31 30 30 29 29 29 29 29 29 28
12 12 11 11 10 9 9 9 10 11 11 13 14 16 17 19 21 23 25 26 27 28 27 27 27 28 29 29 30 30 29 29 29 29 29 29 29 28
14 13 12 12 11 10 10 10 10 11 12 13 15 16 17 18 20 22 23 25 26 27 28 28 28 29 29 29 30 30 30 30 29 29 28 29 29 29
16 15 15 14 13 12 12 12 12 12 13 14 15 16 18 19 20 21 22 23 24 25 26 27 27 28 28 29 30 30 30 30 29 29 29 29 29 29
18 18 17 17 16 15 15 14 14 14 15 15 16 17 17 18 20 21 22 23 24 25 26 26 27 27 28 29 30 29 29 30 29 29 29 29 29 29
21 20 20 19 19 19 18 18 18 18 18 18 18 19 19 20 20 21 22 23 24 25 26 26 26 27 28 28 28 28 28 28 29 29 29 29 29 29
23 23 23 22 22 22 22 22 22 21 21 21 21 21 22 22 22 22 23 24 24 25 26 27 27 26 26 26 26 27 27 28 28 29 29 28 29 29
27 27 27 27 26 26 26 25 26 26 26 25 25 25 25 25 25 25 25 26 26 26 27 28 28 28 27 27 27 28 28 28 28 28 28 28 29 29
30 31 31 31 31 31 31 30 30 30 30 30 29 29 28 28 28 28 28 28 29 29 29 29 30 29 29 29 29 29 29 28 28 28 28 29 29 29
34 35 35 35 36 35 35 34 34 34 34 34 34 34 33 32 32 31 31 32 32 32 31 31 32 32 31 31 31 31 30 30 30 30 30 29 30 30
Wind_Direction
236 235 234 233 233 234 233 231 231 230 230 231 232 231 231 232 232 231 231 231 232 233 234 236 238 240 242 245 249 250 252 255 257 260 264 267 269 272
240 238 236 235 233 234 233 232 231 230 229 230 232 232 233 233 232 232 232 231 233 235 236 237 239 241 244 246 248 249 252 255 258 260 263 265 268 271
243 240 238 237 235 235 235 233 231 230 230 230 231 231 232 233 232 232 232 233 235 236 238 238 240 241 244 245 247 249 252 255 257 260 262 265 266 268
248 244 241 238 236 235 235 233 232 231 230 230 230 231 232 232 232 233 232 232 233 235 237 238 240 241 243 246 248 249 251 254 257 259 262 264 265 267
253 247 243 237 234 234 233 231 231 231 231 230 229 231 231 230 231 231 231 232 232 235 235 237 240 241 243 246 246 249 252 255 257 259 262 263 264 267
265 249 241 235 232 232 231 230 230 231 232 232 232 233 233 232 232 233 232 233 233 235 234 237 240 242 243 246 246 249 252 254 256 259 261 261 264 266
285 261 245 236 233 232 232 231 232 234 234 234 233 234 235 232 233 234 234 235 235 236 236 238 240 241 243 245 247 249 251 254 256 258 259 261 263 265
307 275 256 243 239 238 237 235 235 236 235 235 234 234 233 231 232 233 235 236 237 238 239 240 239 241 242 245 247 249 251 254 256 258 259 260 261 263
328 302 272 255 245 241 242 240 238 236 235 234 233 233 234 232 232 233 234 235 238 240 241 241 242 242 244 246 247 249 251 253 256 256 257 258 260 262
345 332 297 271 253 247 245 242 240 238 236 234 233 232 233 234 234 234 235 236 238 239 242 244 245 246 247 247 248 249 251 252 255 256 257 258 258 260
348 340 325 295 269 258 252 248 245 241 238 237 235 235 233 232 236 237 237 238 239 241 243 244 245 248 248 248 247 248 250 251 254 256 256 256 256 257
346 341 334 316 296 279 266 255 248 244 242 240 238 237 237 236 236 236 238 239 241 242 242 244 246 246 247 247 247 248 249 251 252 253 254 255 255 253
347 342 336 326 311 297 281 266 256 250 247 244 243 242 241 240 238 238 240 242 242 243 243 244 245 246 247 247 246 247 248 249 251 252 253 254 253 252
342 338 333 324 313 303 291 274 263 258 251 247 247 247 245 244 242 242 242 243 244 245 245 245 246 247 247 246 246 246 248 249 251 252 250 250 251 252
338 335 331 325 317 309 299 285 271 266 260 256 254 251 248 248 246 245 244 242 244 247 248 248 247 246 246 245 245 246 248 249 251 251 250 248 249 248
329 329 328 327 318 308 301 293 282 274 266 261 258 255 252 251 251 249 247 245 245 246 247 248 248 247 246 246 248 248 250 249 249 249 249 247 247 248
317 317 316 315 313 308 301 296 290 282 274 269 263 259 257 255 253 252 250 248 247 248 248 249 249 248 248 247 247 248 249 249 249 249 247 248 248 249
311 310 309 307 305 302 299 296 292 287 281 277 271 266 262 259 257 255 253 251 250 250 251 250 249 248 248 248 248 248 247 247 247 246 246 247 246 247
307 306 304 302 299 296 294 292 289 286 283 279 275 270 266 263 260 258 255 253 252 251 250 249 249 249 249 248 246 245 246 246 247 246 247 246 247 246
302 301 300 298 296 292 289 288 286 284 282 279 276 272 269 266 263 260 257 256 255 253 251 250 249 249 248 248 248 247 247 248 248 248 248 248 248 247
297 296 296 295 293 290 288 284 282 280 279 277 275 272 269 267 264 262 259 257 257 255 253 252 250 249 250 250 248 248 250 250 250 249 249 249 248 247
294 293 292 291 290 288 286 284 281 278 277 275 274 272 270 268 265 262 260 258 258 256 254 252 251 250 249 249 249 248 248 249 249 248 247 247 247 246
292 291 290 288 287 286 284 282 281 278 276 274 272 271 269 267 264 262 261 259 257 256 255 253 251 250 250 249 247 247 247 248 249 249 248 246 246 247
Height
5752 5754 5757 5760 5764 5767 5771 5775 5779 5783 5787 5791 5795 5799 5802 5807 5811 5814 5819 5822 5826 5829 5832 5835 5838 5840 5843 5845 5846 5848 5849 5850 5851 5851 5852 5852 5852 5852
5746 5749 5751 5754 5757 5760 5763 5767 5771 5775 5779 5783 5788 5791 5795 5799 5803 5807 5811 5815 5818 5821 5825 5828 5831 5833 5836 5838 5839 5841 5842 5843 5844 5845 5845 5845 5845 5845
5741 5743 5745 5748 5750 5753 5756 5759 5763 5767 5772 5776 5779 5783 5788 5792 5796 5799 5803 5807 5810 5814 5817 5820 5823 5826 5828 5830 5832 5834 5835 5836 5837 5838 5838 5839 5839 5839
5737 5738 5740 5741 5744 5746 5749 5752 5756 5760 5764 5768 5772 5776 5780 5784 5788 5792 5795 5799 5802 5806 5809 5812 5815 5818 5821 5823 5825 5827 5828 5829 5830 5831 5831 5832 5832 5832
5733 5734 5734 5736 5738 5741 5743 5746 5749 5753 5757 5761 5765 5769 5773 5777 5780 5784 5787 5791 5794 5798 5801 5804 5807 5810 5813 5815 5817 5819 5821 5822 5823 5823 5824 5824 5824 5824
5730 5730 5730 5731 5733 5735 5738 5741 5743 5747 5750 5754 5758 5761 5765 5769 5773 5776 5780 5783 5787 5790 5793 5796 5799 5802 5804 5807 5809 5810 5812 5813 5814 5815 5816 5816 5817 5817
5728 5727 5728 5728 5730 5732 5734 5736 5738 5741 5744 5748 5751 5755 5758 5762 5766 5769 5773 5776 5779 5782 5785 5788 5791 5794 5796 5798 5800 5802 5803 5805 5806 5807 5808 5808 5809 5809
5727 5726 5726 5726 5727 5728 5730 5731 5734 5736 5739 5741 5745 5748 5751 5755 5758 5762 5765 5769 5772 5776 5778 5780 5783 5785 5787 5790 5791 5793 5795 5796 5797 5798 5799 5800 5800 5801
5726 5725 5724 5724 5725 5725 5727 5728 5729 5731 5734 5736 5739 5741 5744 5748 5751 5755 5758 5761 5765 5767 5769 5772 5774 5777 5779 5781 5783 5784 5786 5787 5789 5790 5791 5791 5792 5792
5725 5724 5723 5723 5723 5723 5724 5725 5726 5727 5729 5731 5733 5735 5738 5741 5744 5748 5750 5754 5757 5759 5762 5764 5766 5769 5771 5772 5774 5776 5777 5779 5780 5781 5782 5782 5783 5784
5725 5724 5723 5722 5721 5721 5721 5722 5722 5723 5724 5726 5728 5730 5732 5735 5738 5741 5744 5746 5749 5751 5754 5756 5758 5760 5762 5764 5766 5768 5769 5770 5771 5772 5773 5774 5774 5775
5725 5723 5722 5721 5720 5719 5719 5719 5719 5719 5720 5722 5723 5725 5727 5729 5731 5734 5737 5739 5741 5744 5746 5748 5750 5752 5754 5756 5757 5759 5760 5762 5763 5764 5764 5765 5766 5767
5725 5723 5721 5720 5718 5717 5717 5716 5716 5716 5717 5718 5719 5720 5722 5724 5726 5728 5730 5732 5734 5736 5738 5740 5741 5743 5746 5747 5749 5751 5752 5753 5754 5755 5756 5757 5758 5759
5725 5723 5721 5719 5717 5716 5715 5714 5714 5714 5714 5715 5715 5716 5718 5719 5720 5722 5723 5725 5727 5729 5730 5732 5734 5735 5737 5739 5741 5742 5743 5744 5746 5747 5748 5749 5750 5751
5724 5722 5720 5718 5716 5714 5713 5712 5712 5712 5712 5712 5712 5712 5713 5714 5715 5716 5717 5718 5720 5721 5723 5725 5726 5727 5729 5731 5732 5734 5735 5736 5737 5739 5740 5741 5742 5744
5723 5720 5718 5716 5714 5713 5711 5710 5710 5709 5709 5708 5708 5708 5708 5709 5709 5710 5711 5712 5713 5715 5716 5717 5718 5720 5721 5723 5724 5726 5727 5728 5729 5730 5732 5733 5734 5736
5720 5718 5716 5714 5712 5711 5709 5708 5707 5706 5705 5704 5704 5704 5704 5704 5704 5705 5705 5706 5707 5708 5709 5710 5711 5712 5713 5715 5716 5718 5719 5720 5721 5722 5724 5725 5727 5728
5717 5715 5713 5711 5709 5708 5706 5705 5703 5702 5701 5700 5700 5699 5699 5699 5699 5699 5699 5700 5700 5701 5702 5703 5704 5705 5706 5707 5708 5709 5710 5712 5713 5715 5716 5717 5719 5720
5713 5711 5709 5707 5705 5703 5702 5700 5699 5698 5696 5695 5695 5694 5694 5693 5693 5693 5693 5693 5694 5694 5695 5696 5696 5697 5698 5700 5700 5702 5703 5704 5706 5707 5708 5709 5711 5713
5707 5705 5703 5701 5699 5698 5696 5695 5693 5692 5691 5690 5689 5688 5687 5687 5686 5686 5686 5686 5687 5687 5688 5688 5689 5690 5691 5692 5693 5694 5695 5696 5697 5699 5700 5701 5703 5704
5700 5698 5696 5694 5692 5690 5689 5687 5686 5685 5684 5683 5682 5681 5680 5680 5679 5679 5679 5679 5679 5680 5680 5681 5681 5682 5683 5685 5686 5687 5687 5688 5689 5691 5692 5693 5695 5696
5692 5690 5687 5685 5684 5682 5680 5679 5677 5676 5675 5674 5673 5672 5672 5671 5671 5671 5670 5671 5671 5671 5672 5672 5673 5674 5675 5676 5677 5678 5679 5680 5681 5682 5684 5685 5686 5688
5682 5679 5677 5675 5673 5671 5670 5668 5667 5665 5664 5663 5662 5662 5661 5661 5661 5661 5661 5661 5661 5661 5662 5663 5664 5665 5666 5667 5668 5669 5670 5671 5673 5674 5675 5676 5678 5680